Time,TemperatureF,DewpointF,PressureIn,WindDirection,WindDirectionDegrees,WindSpeedMPH,WindSpeedGustMPH,Humidity,HourlyPrecipIn,Conditions,Clouds,dailyrainin,SolarRadiationWatts/m^2,SoftwareType,DateUTC
2013-01-17 00:00:00,33.0,25.0,-100.00,West,270,9.0,-999.0,72,-99.99,,,-99.99,0.000000,,2013-01-17 05:00:00,
2013-01-17 00:43:00,33.0,25.0,-100.00,West,270,9.0,-999.0,72,-99.99,,,-99.99,0.000000,,2013-01-17 05:43:00,
2013-01-17 00:53:00,33.0,25.0,-100.00,West,270,9.0,-999.0,72,-99.99,,,-99.99,0.000000,,2013-01-17 05:53:00,
2013-01-17 01:00:00,33.0,26.0,-100.00,WNW,292,8.0,-999.0,74,-99.99,,,-99.99,0.000000,,2013-01-17 06:00:00,
2013-01-17 01:33:00,33.0,26.0,-100.00,WNW,292,8.0,-999.0,74,-99.99,,,-99.99,0.000000,,2013-01-17 06:33:00,
2013-01-17 01:42:00,33.0,26.0,-100.00,WNW,292,8.0,-999.0,74,-99.99,,,-99.99,0.000000,,2013-01-17 06:42:00,
2013-01-17 01:53:00,33.0,26.0,-100.00,WNW,292,8.0,-999.0,74,-99.99,,,-99.99,0.000000,,2013-01-17 06:53:00,
2013-01-17 02:00:00,34.0,27.0,-100.00,WNW,292,7.0,-999.0,75,-99.99,,,-99.99,0.000000,,2013-01-17 07:00:00,
2013-01-17 02:43:00,34.0,27.0,-100.00,WNW,292,7.0,-999.0,75,-99.99,,,-99.99,0.000000,,2013-01-17 07:43:00,
2013-01-17 02:53:00,34.0,27.0,-100.00,WNW,292,7.0,-999.0,75,-99.99,,,-99.99,0.000000,,2013-01-17 07:53:00,
2013-01-17 03:00:00,33.0,27.0,-100.00,WNW,292,5.0,-999.0,77,-99.99,,,-99.99,0.000000,,2013-01-17 08:00:00,
2013-01-17 03:43:00,33.0,27.0,-100.00,WNW,292,5.0,-999.0,77,-99.99,,,-99.99,0.000000,,2013-01-17 08:43:00,
2013-01-17 03:53:00,33.0,27.0,-100.00,WNW,292,5.0,-999.0,77,-99.99,,,-99.99,0.000000,,2013-01-17 08:53:00,
2013-01-17 04:00:00,34.0,27.0,-100.00,West,270,5.0,-999.0,76,-99.99,,,-99.99,0.000000,,2013-01-17 09:00:00,
2013-01-17 04:43:00,34.0,27.0,-100.00,West,270,5.0,-999.0,76,-99.99,,,-99.99,0.000000,,2013-01-17 09:43:00,
2013-01-17 04:53:00,34.0,27.0,-100.00,West,270,5.0,-999.0,76,-99.99,,,-99.99,0.000000,,2013-01-17 09:53:00,
2013-01-17 05:00:00,32.0,27.0,-100.00,WNW,292,5.0,-999.0,79,-99.99,,,-99.99,0.000000,,2013-01-17 10:00:00,
2013-01-17 05:43:00,32.0,27.0,-100.00,WNW,292,5.0,-999.0,79,-99.99,,,-99.99,0.000000,,2013-01-17 10:43:00,
2013-01-17 05:53:00,32.0,27.0,-100.00,WNW,292,5.0,-999.0,79,-99.99,,,-99.99,0.000000,,2013-01-17 10:53:00,
2013-01-17 06:00:00,32.0,27.0,-100.00,WNW,292,5.0,-999.0,80,-99.99,,,-99.99,0.000000,,2013-01-17 11:00:00,
2013-01-17 06:43:00,32.0,27.0,-100.00,WNW,292,5.0,-999.0,80,-99.99,,,-99.99,0.000000,,2013-01-17 11:43:00,
2013-01-17 06:53:00,32.0,27.0,-100.00,WNW,292,5.0,-999.0,80,-99.99,,,-99.99,0.000000,,2013-01-17 11:53:00,
2013-01-17 07:00:00,30.0,26.0,-100.00,WNW,292,3.0,-999.0,83,-99.99,,,-99.99,0.000000,,2013-01-17 12:00:00,
2013-01-17 07:33:00,30.0,26.0,-100.00,WNW,292,3.0,-999.0,83,-99.99,,,-99.99,0.000000,,2013-01-17 12:33:00,
2013-01-17 07:43:00,30.0,26.0,-100.00,WNW,292,3.0,-999.0,83,-99.99,,,-99.99,0.000000,,2013-01-17 12:43:00,
2013-01-17 07:53:00,30.0,26.0,-100.00,WNW,292,3.0,-999.0,83,-99.99,,,-99.99,0.000000,,2013-01-17 12:53:00,
2013-01-17 08:00:00,28.0,25.0,-100.00,WNW,292,2.0,-999.0,88,-99.99,,,-99.99,0.000000,,2013-01-17 13:00:00,
2013-01-17 08:33:00,28.0,25.0,-100.00,WNW,292,2.0,-999.0,88,-99.99,,,-99.99,0.000000,,2013-01-17 13:33:00,
2013-01-17 08:43:00,28.0,25.0,-100.00,WNW,292,2.0,-999.0,88,-99.99,,,-99.99,0.000000,,2013-01-17 13:43:00,
2013-01-17 08:53:00,28.0,25.0,-100.00,WNW,292,2.0,-999.0,88,-99.99,,,-99.99,0.000000,,2013-01-17 13:53:00,
2013-01-17 09:00:00,27.0,24.0,-100.00,WNW,292,1.0,-999.0,87,-99.99,,,-99.99,19.719999,,2013-01-17 14:00:00,
2013-01-17 09:43:00,27.0,24.0,-100.00,WNW,292,1.0,-999.0,87,-99.99,,,-99.99,19.719999,,2013-01-17 14:43:00,
2013-01-17 09:53:00,27.0,24.0,-100.00,WNW,292,1.0,-999.0,87,-99.99,,,-99.99,19.719999,,2013-01-17 14:53:00,
2013-01-17 10:00:00,29.0,25.0,-100.00,WNW,292,3.0,-999.0,87,-99.99,,,-99.99,106.720001,,2013-01-17 15:00:00,
2013-01-17 10:33:00,29.0,25.0,-100.00,WNW,292,3.0,-999.0,87,-99.99,,,-99.99,106.720001,,2013-01-17 15:33:00,
2013-01-17 10:43:00,29.0,25.0,-100.00,WNW,292,3.0,-999.0,87,-99.99,,,-99.99,106.720001,,2013-01-17 15:43:00,
2013-01-17 10:53:00,29.0,25.0,-100.00,WNW,292,3.0,-999.0,87,-99.99,,,-99.99,106.720001,,2013-01-17 15:53:00,
2013-01-17 11:00:00,35.0,25.0,-100.00,South,180,8.0,-999.0,65,-99.99,,,-99.99,335.239990,,2013-01-17 16:00:00,
2013-01-17 11:44:00,35.0,25.0,-100.00,South,180,8.0,-999.0,65,-99.99,,,-99.99,335.239990,,2013-01-17 16:44:00,
2013-01-17 11:53:00,35.0,25.0,-100.00,South,180,8.0,-999.0,65,-99.99,,,-99.99,335.239990,,2013-01-17 16:53:00,
2013-01-17 12:00:00,36.0,22.0,-100.00,WSW,247,7.0,-999.0,56,-99.99,,,-99.99,409.480011,,2013-01-17 17:00:00,
2013-01-17 12:43:00,36.0,22.0,-100.00,WSW,247,7.0,-999.0,56,-99.99,,,-99.99,409.480011,,2013-01-17 17:43:00,
2013-01-17 12:54:00,36.0,22.0,-100.00,WSW,247,7.0,-999.0,56,-99.99,,,-99.99,409.480011,,2013-01-17 17:54:00,
2013-01-17 13:00:00,37.0,21.0,-100.00,NW,315,8.0,-999.0,53,-99.99,,,-99.99,480.239990,,2013-01-17 18:00:00,
2013-01-17 13:44:00,37.0,21.0,-100.00,NW,315,8.0,-999.0,53,-99.99,,,-99.99,480.239990,,2013-01-17 18:44:00,
2013-01-17 13:54:00,37.0,21.0,-100.00,NW,315,8.0,-999.0,53,-99.99,,,-99.99,480.239990,,2013-01-17 18:54:00,
2013-01-17 14:00:00,38.0,21.0,-100.00,NW,315,8.0,-999.0,50,-99.99,,,-99.99,470.959991,,2013-01-17 19:00:00,
2013-01-17 14:23:00,38.0,21.0,-100.00,NW,315,8.0,-999.0,50,-99.99,,,-99.99,470.959991,,2013-01-17 19:23:00,
2013-01-17 14:33:00,38.0,21.0,-100.00,NW,315,8.0,-999.0,50,-99.99,,,-99.99,470.959991,,2013-01-17 19:33:00,
2013-01-17 14:43:00,38.0,21.0,-100.00,NW,315,8.0,-999.0,50,-99.99,,,-99.99,470.959991,,2013-01-17 19:43:00,
2013-01-17 14:53:00,38.0,21.0,-100.00,NW,315,8.0,-999.0,50,-99.99,,,-99.99,470.959991,,2013-01-17 19:53:00,
2013-01-17 15:00:00,38.0,20.0,-100.00,NW,315,11.0,-999.0,47,-99.99,,,-99.99,410.640015,,2013-01-17 20:00:00,
2013-01-17 15:43:00,38.0,20.0,-100.00,NW,315,11.0,-999.0,47,-99.99,,,-99.99,410.640015,,2013-01-17 20:43:00,
2013-01-17 15:54:00,38.0,20.0,-100.00,NW,315,11.0,-999.0,47,-99.99,,,-99.99,410.640015,,2013-01-17 20:54:00,
2013-01-17 16:00:00,38.0,20.0,-100.00,NW,315,12.0,-999.0,47,-99.99,,,-99.99,285.359985,,2013-01-17 21:00:00,
2013-01-17 16:43:00,38.0,20.0,-100.00,NW,315,12.0,-999.0,47,-99.99,,,-99.99,285.359985,,2013-01-17 21:43:00,
2013-01-17 16:53:00,38.0,20.0,-100.00,NW,315,12.0,-999.0,47,-99.99,,,-99.99,285.359985,,2013-01-17 21:53:00,
2013-01-17 17:00:00,35.0,17.0,-100.00,WNW,292,13.0,-999.0,47,-99.99,,,-99.99,136.880005,,2013-01-17 22:00:00,
2013-01-17 17:43:00,35.0,17.0,-100.00,WNW,292,13.0,-999.0,47,-99.99,,,-99.99,136.880005,,2013-01-17 22:43:00,
2013-01-17 17:53:00,35.0,17.0,-100.00,WNW,292,13.0,-999.0,47,-99.99,,,-99.99,136.880005,,2013-01-17 22:53:00,
2013-01-17 18:00:00,30.0,15.0,-100.00,WNW,292,12.0,-999.0,53,-99.99,,,-99.99,12.760000,,2013-01-17 23:00:00,
2013-01-17 18:43:00,30.0,15.0,-100.00,WNW,292,12.0,-999.0,53,-99.99,,,-99.99,12.760000,,2013-01-17 23:43:00,
2013-01-17 18:53:00,30.0,15.0,-100.00,WNW,292,12.0,-999.0,53,-99.99,,,-99.99,12.760000,,2013-01-17 23:53:00,
2013-01-17 19:00:00,27.0,14.0,-100.00,NNW,337,15.0,-999.0,57,-99.99,,,-99.99,0.000000,,2013-01-18 00:00:00,
2013-01-17 19:43:00,27.0,14.0,-100.00,NNW,337,15.0,-999.0,57,-99.99,,,-99.99,0.000000,,2013-01-18 00:43:00,
2013-01-17 19:53:00,27.0,14.0,-100.00,NNW,337,15.0,-999.0,57,-99.99,,,-99.99,0.000000,,2013-01-18 00:53:00,
2013-01-17 20:00:00,24.0,12.0,-100.00,NW,315,13.0,-999.0,61,-99.99,,,-99.99,0.000000,,2013-01-18 01:00:00,
2013-01-17 20:33:00,24.0,12.0,-100.00,NW,315,13.0,-999.0,61,-99.99,,,-99.99,0.000000,,2013-01-18 01:33:00,
2013-01-17 20:43:00,24.0,12.0,-100.00,NW,315,13.0,-999.0,61,-99.99,,,-99.99,0.000000,,2013-01-18 01:43:00,
2013-01-17 20:53:00,24.0,12.0,-100.00,NW,315,13.0,-999.0,61,-99.99,,,-99.99,0.000000,,2013-01-18 01:53:00,
2013-01-17 21:00:00,22.0,10.0,-100.00,NNW,337,14.0,-999.0,59,-99.99,,,-99.99,0.000000,,2013-01-18 02:00:00,
2013-01-17 21:43:00,22.0,10.0,-100.00,NNW,337,14.0,-999.0,59,-99.99,,,-99.99,0.000000,,2013-01-18 02:43:00,
2013-01-17 21:53:00,22.0,10.0,-100.00,NNW,337,14.0,-999.0,59,-99.99,,,-99.99,0.000000,,2013-01-18 02:53:00,
2013-01-17 22:00:00,20.0,9.0,-100.00,NW,315,11.0,-999.0,60,-99.99,,,-99.99,0.000000,,2013-01-18 03:00:00,
2013-01-17 22:43:00,20.0,9.0,-100.00,NW,315,11.0,-999.0,60,-99.99,,,-99.99,0.000000,,2013-01-18 03:43:00,
2013-01-17 22:53:00,20.0,9.0,-100.00,NW,315,11.0,-999.0,60,-99.99,,,-99.99,0.000000,,2013-01-18 03:53:00,
2013-01-17 23:00:00,19.0,9.0,-100.00,WNW,292,7.0,-999.0,62,-99.99,,,-99.99,0.000000,,2013-01-18 04:00:00,
2013-01-17 23:33:00,19.0,9.0,-100.00,WNW,292,7.0,-999.0,62,-99.99,,,-99.99,0.000000,,2013-01-18 04:33:00,
2013-01-17 23:43:00,19.0,9.0,-100.00,WNW,292,7.0,-999.0,62,-99.99,,,-99.99,0.000000,,2013-01-18 04:43:00,
2013-01-17 23:53:00,19.0,9.0,-100.00,WNW,292,7.0,-999.0,62,-99.99,,,-99.99,0.000000,,2013-01-18 04:53:00,